sat.trackr.live / text

‹ back to catalog

STARLINK-33694

NORAD 63407 · 2025-065J

PAYLOAD ACTIVE UNKNOWN

§ Identity

Operator
Country
US
Launch date
2025-03-31
Launch site
AFETR
Launch vehicle
Mass (kg)
RCS (m²)

Purposes: comms

External: N2YO · Heavens-Above · Gunter

§ Orbital elements

Epoch: 2026-05-25T01:40:59.878272Z

Period
94.27 min
Inclination
43.0025°
Eccentricity
0.0001337
Mean motion
15.27589064 rev/d
Perigee alt
482.1 km
Apogee alt
483.9 km
Semi-major
6,861.2 km
B*
8.2369e-4
RAAN
35.5176°
Arg perigee
268.0859°
Mean anomaly
91.9840°
Rev number
6,452

§ Raw data

STARLINK-336941 63407U 25065J   26145.07013748  .00022479  00000+0  82369-3 0  99902 63407  43.0025  35.5176 0001337 268.0859  91.9840 15.27589064 64520

JSON: /api/v1/satellites/63407 · /tle

For live sub-satellite position, see the globe view (requires WebGL).

§ Visibility from observer

Set your observer location to see the next 7 days of passes ≥ 10°. The values pass through the URL so the page stays shareable.

No JS? Fill the form by hand. The geolocation button needs JavaScript.